Home > Weather > Halberstadt > Past weeks

Flag for Germany Past Weather in Halberstadt, Saxony-Anhalt, Germany — Yesterday and Last 2 Weeks

Now
64 °F

Mostly cloudy.


Feels Like: 64 °F
Forecast: 57 / 69 °F
Wind: 7 mph from West

Location: Braunschweig Wolfsburg

Current Time: Jun 27, 2016 at 10:22:50 PM

Latest Report: Jun 27, 2016 at 9:50 PM


Visibility: N/A

Pressure: 30.04 "Hg

Humidity: 73%

Dew Point: 55 °F

Location of HalberstadtLocation

Past Weather in Halberstadt — Graph

°F

Halberstadt Temperature Yesterday

Maximum temperature yesterday: 70 °F (at 2:50 PM)
Minimum temperature yesterday: 59 °F (at 8:20 AM)
Average temperature yesterday: 66 °F

High & Low Weather Summary for the Past Weeks

 TemperatureHumidityPressure
High90 °F (Jun 23, 3:50 PM)100% (Jun 13, 7:20 AM)30.21 "Hg (Jun 13, 7:20 AM)
Low50 °F (Jun 20, 6:50 AM)38% (Jun 23, 3:50 PM)29.47 "Hg (Jun 14, 2:50 PM)
Average67 °F71%29.87 "Hg
* Reported Jun 13 6:50 AM — Jun 27 8:50 PM, Halberstadt, Weather by CustomWeather, © 2016

Note: Actual official high and low records may vary slightly from our data, if they occured in-between our weather recording intervals... More about our weather records

Advertising

Halberstadt Weather History for the Previous 24 Hours

Scroll right to see more
 ConditionsComfort  
Time TempWeatherWind HumidityBarometerVisibility
8:50 PM
Mon, Jun 27
66 °FCloudy.8 mph64%30.01 "HgN/A
8:20 PM68 °FMore clouds than sun.9 mph60%30.01 "HgN/A
7:50 PM68 °FPartly sunny.9 mph56%30.01 "HgN/A
7:20 PM70 °FBroken clouds.12 mph53%30.01 "HgN/A
6:50 PM70 °FPartly sunny.14 mph50%30.01 "HgN/A
6:20 PM70 °FPassing clouds.12 mph50%30.01 "HgN/A
5:50 PM70 °FSunny.12 mph50%30.01 "Hg10 mi
5:20 PM72 °FSunny.14 mph47%30.01 "Hg10 mi
4:50 PM72 °FPassing clouds.14 mph47%30.01 "HgN/A
4:20 PM72 °FSunny.13 mph44%30.04 "Hg10 mi
3:50 PM72 °FSunny.14 mph50%30.04 "Hg10 mi
3:20 PM70 °FScattered clouds.9 mph53%30.04 "HgN/A
2:50 PM68 °FSunny.15 mph53%30.04 "Hg10 mi
2:20 PM70 °FPassing clouds.12 mph50%30.04 "HgN/A
1:50 PM70 °FPassing clouds.10 mph53%30.04 "HgN/A
1:20 PM68 °FScattered clouds.13 mph53%30.07 "HgN/A
12:50 PM68 °FBroken clouds.12 mph60%30.07 "HgN/A
11:50 AM66 °FPartly sunny.10 mph64%30.07 "HgN/A
11:20 AM64 °FBroken clouds.12 mph64%30.07 "HgN/A
10:50 AM63 °FPartly sunny.10 mph64%30.07 "HgN/A
10:20 AM63 °FPartly sunny.9 mph68%30.07 "HgN/A
9:50 AM63 °FScattered clouds.12 mph73%30.07 "HgN/A
9:20 AM63 °FScattered clouds.12 mph73%30.07 "HgN/A
8:50 AM61 °FPassing clouds.10 mph72%30.07 "HgN/A
8:20 AM61 °FSunny.10 mph72%30.07 "Hg10 mi
7:50 AM59 °FSunny.9 mph82%30.07 "Hg10 mi
7:20 AM59 °FSunny.9 mph77%30.07 "Hg10 mi
6:50 AM57 °FPassing clouds.7 mph82%30.07 "HgN/A
Weather by CustomWeather, © 2016

See weather overviewHow to use our weather pages